Stations météo

réclame
Mon MeteoGroup
Lampedusa, Italie (16490): Température de l'air & dewpoint: 15.02.2019 19:00:00 - 21.02.2019 19:00:00 (CET)Lampedusa, Italie (16490): Vitesse du vent: 15.02.2019 19:00:00 - 21.02.2019 19:00:00 (CET)Lampedusa, Italie (16490): Direction du vent: 15.02.2019 19:00:00 - 21.02.2019 19:00:00 (CET)Lampedusa, Italie (16490): reduced air pressure: 15.02.2019 19:00:00 - 21.02.2019 19:00:00 (CET)Lampedusa, Italie (16490): visibility: 15.02.2019 19:00:00 - 21.02.2019 19:00:00 (CET)Lampedusa, Italie (16490): Quantités de précipitations: 15.02.2019 19:00:00 - 21.02.2019 19:00:00 (CET)
Date & Time tt [°C] td [°C] ff [km/h] ff [knt] dd ppp [hPa] vv [km] rr [mm]
21.02.2019 19:00:00 13,2 9,5 9 5 N 1027,3 10 -
21.02.2019 18:00:00 14,0 9,0 13 7 N - 10 -
21.02.2019 17:00:00 15,0 9,0 11 6 N - 10 -
21.02.2019 16:00:00 14,6 9,4 13 7 N 1027,0 10 0,0
21.02.2019 15:00:00 15,0 11,0 15 8 NNE - 10 -
21.02.2019 14:00:00 15,0 11,0 16 9 NNE - 10 -
21.02.2019 13:00:00 15,4 10,6 18 10 NNE 1027,3 20 -
21.02.2019 12:00:00 15,0 11,0 18 10 NNE - 10 -
21.02.2019 11:00:00 15,0 11,0 16 9 NNE - 10 -
21.02.2019 10:00:00 14,8 10,4 15 8 NNE 1027,3 20 0,0
21.02.2019 09:00:00 14,0 11,0 16 9 NE - 10 -
21.02.2019 08:00:00 14,0 10,0 16 9 NE - 10 -
21.02.2019 07:00:00 13,5 10,3 11 6 NE 1025,7 15 -
21.02.2019 06:00:00 14,0 11,0 13 7 NE - 10 -
21.02.2019 05:00:00 14,0 11,0 15 8 NE - 10 -
21.02.2019 04:00:00 13,4 10,6 11 6 NE 1024,9 10 0,0
21.02.2019 03:00:00 14,0 10,0 13 7 ENE - 10 -
21.02.2019 02:00:00 14,0 10,0 11 6 ENE - 10 -
21.02.2019 01:00:00 13,8 10,5 13 7 NE 1025,0 10 -
21.02.2019 00:00:00 14,0 10,0 15 8 NNE - 10 -
20.02.2019 23:00:00 14,0 10,0 13 7 NNE - 10 -
20.02.2019 22:00:00 13,8 9,8 13 7 NE 1024,5 20 0,0
20.02.2019 21:00:00 14,0 9,0 9 5 ENE - 10 -
20.02.2019 20:00:00 14,0 9,0 11 6 ENE - 10 -
20.02.2019 19:00:00 14,1 9,3 9 5 NE 1023,8 10 -
20.02.2019 18:00:00 15,0 9,0 9 5 ENE - 10 -
20.02.2019 17:00:00 15,0 9,0 9 5 ENE - 10 -
20.02.2019 16:00:00 15,0 9,0 11 6 ENE - 10 -
20.02.2019 15:00:00 15,0 9,0 9 5 ENE - 10 -
20.02.2019 14:00:00 16,0 9,0 11 6 E - 10 -
20.02.2019 13:00:00 15,7 10,2 11 6 E 1022,9 10 -
20.02.2019 12:00:00 15,0 11,0 11 6 E - 10 -
20.02.2019 11:00:00 15,0 11,0 15 8 E - 10 -
20.02.2019 10:00:00 15,0 10,0 11 6 E - 10 -
20.02.2019 09:00:00 15,0 10,0 9 5 E - 10 -
20.02.2019 08:00:00 14,0 11,0 9 5 ESE - 10 -
20.02.2019 07:00:00 13,2 10,1 9 5 SE 1021,9 30 -
20.02.2019 06:00:00 13,0 10,0 13 7 SE - 10 -
20.02.2019 05:00:00 14,0 10,0 15 8 SSE - 10 -
20.02.2019 04:00:00 13,4 10,1 15 8 SSE 1021,8 10 0,0
20.02.2019 03:00:00 13,0 11,0 16 9 SE - 10 -
20.02.2019 02:00:00 14,0 11,0 18 10 SE - 10 -
20.02.2019 01:00:00 13,7 10,7 16 9 SE 1022,2 10 -
20.02.2019 00:00:00 14,0 11,0 16 9 SE - 10 -
19.02.2019 23:00:00 14,0 11,0 16 9 SSE - 10 -
19.02.2019 22:00:00 13,7 10,4 16 9 SSE 1022,7 10 0,0
19.02.2019 21:00:00 14,0 11,0 16 9 SE - 10 -
19.02.2019 20:00:00 14,0 11,0 13 7 SE - 10 -
19.02.2019 19:00:00 14,1 10,8 13 7 SE 1022,1 10 -
19.02.2019 18:00:00 14,0 10,0 9 5 SE - 10 -
19.02.2019 17:00:00 15,0 11,0 9 5 SSE - 10 -
19.02.2019 16:00:00 15,3 10,9 9 5 SSE 1021,9 10 0,0
19.02.2019 15:00:00 16,0 11,0 9 5 S - 10 -
19.02.2019 14:00:00 16,0 11,0 11 6 SSE - 10 -
19.02.2019 13:00:00 15,6 10,6 15 8 SSE 1022,9 10 -
19.02.2019 12:00:00 16,0 10,0 13 7 SSE - 10 -
19.02.2019 11:00:00 16,0 10,0 13 7 S - 10 -
19.02.2019 10:00:00 15,6 10,1 11 6 S 1024,0 10 0,0
19.02.2019 09:00:00 15,0 10,0 11 6 S - 10 -
19.02.2019 08:00:00 14,0 9,0 15 8 S - 10 -
19.02.2019 07:00:00 13,3 8,5 13 7 SSE 1023,1 10 -
19.02.2019 06:00:00 13,0 8,0 11 6 SSE - 10 -
19.02.2019 05:00:00 13,0 8,0 15 8 SSE - 10 -
19.02.2019 04:00:00 13,1 8,5 13 7 SSE 1022,8 10 0,0
19.02.2019 03:00:00 13,0 9,0 13 7 SSE - 10 -
19.02.2019 02:00:00 13,0 8,0 11 6 S - 10 -
19.02.2019 01:00:00 13,0 9,0 9 5 S - 10 -
19.02.2019 00:00:00 13,0 9,0 11 6 S - 10 -
18.02.2019 23:00:00 13,0 9,0 13 7 SSE - 10 -
18.02.2019 22:00:00 13,7 9,6 15 8 SSE 1025,0 10 0,0
18.02.2019 21:00:00 14,0 9,0 5 3 S - 10 -
18.02.2019 20:00:00 14,0 8,0 9 5 SSW - 10 -
18.02.2019 19:00:00 13,7 8,4 13 7 SSW 1024,7 10 -
18.02.2019 18:00:00 14,0 9,0 15 8 SSE - 10 -
18.02.2019 17:00:00 14,0 9,0 15 8 SSE - 10 -
18.02.2019 16:00:00 14,1 9,4 15 8 SSE 1024,6 10 0,0
18.02.2019 15:00:00 15,0 8,0 13 7 S - 10 -
18.02.2019 14:00:00 15,0 8,0 13 7 S - 10 -
18.02.2019 13:00:00 14,8 8,2 11 6 SSW 1026,5 30 -
18.02.2019 12:00:00 15,0 8,0 15 8 SSW - 10 -
18.02.2019 11:00:00 14,0 8,0 13 7 SSW - 10 -
18.02.2019 10:00:00 14,3 7,7 11 6 SSW 1027,7 30 0,0
18.02.2019 09:00:00 13,0 7,0 9 5 SSW - 10 -
18.02.2019 08:00:00 12,0 7,0 9 5 S - 10 -
18.02.2019 07:00:00 11,5 6,2 8 4 S 1027,4 20 -
18.02.2019 06:00:00 12,0 7,0 9 5 SSW - 10 -
18.02.2019 05:00:00 12,0 6,0 9 5 SSW - 10 -
18.02.2019 04:00:00 11,1 6,0 5 3 SSW 1027,2 10 0,0
18.02.2019 03:00:00 12,0 6,0 8 4 SSW - 10 -
18.02.2019 02:00:00 12,0 7,0 11 6 SSW - 10 -
18.02.2019 01:00:00 11,5 6,6 9 5 S 1028,5 10 -
18.02.2019 00:00:00 11,0 6,0 2 1 - - 10 -
17.02.2019 23:00:00 12,0 7,0 2 1 WNW - 10 -
17.02.2019 22:00:00 11,6 6,4 2 1 W 1029,1 10 0,0
17.02.2019 21:00:00 12,0 7,0 2 1 W - 10 -
17.02.2019 20:00:00 12,0 7,0 4 2 W - 10 -
17.02.2019 19:00:00 11,6 7,0 5 3 WNW 1029,1 10 -
17.02.2019 18:00:00 13,0 6,0 5 3 WNW - 10 -
17.02.2019 17:00:00 14,0 7,0 9 5 NW - 10 -
17.02.2019 16:00:00 14,0 7,0 8 4 WNW - 10 -
17.02.2019 15:00:00 14,0 6,0 9 5 NNW - 10 -
17.02.2019 14:00:00 14,0 6,0 9 5 NNW - 10 -
17.02.2019 13:00:00 13,9 6,3 9 5 N 1029,9 10 -
17.02.2019 12:00:00 14,0 7,0 11 6 N - 10 -
17.02.2019 11:00:00 - - - - - - - -
17.02.2019 10:00:00 14,1 7,2 11 6 WSW 1030,4 20 0,0
17.02.2019 09:00:00 13,0 8,0 9 5 W - 10 -
17.02.2019 08:00:00 10,0 6,0 9 5 W - 10 -
17.02.2019 07:00:00 10,3 5,9 9 5 W 1029,7 10 -
17.02.2019 06:00:00 10,0 5,0 9 5 W - 10 -
17.02.2019 05:00:00 10,0 5,0 9 5 W - 10 -
17.02.2019 04:00:00 10,7 3,7 9 5 W 1028,8 10 0,0
17.02.2019 03:00:00 11,0 3,0 8 4 W - 10 -
17.02.2019 02:00:00 10,0 3,0 5 3 W - 10 -
17.02.2019 01:00:00 11,0 3,8 8 4 NW 1029,7 10 -
17.02.2019 00:00:00 11,0 4,0 8 4 NNW - 10 -
16.02.2019 23:00:00 12,0 5,0 8 4 NW - 10 -
16.02.2019 22:00:00 11,6 5,1 8 4 NNW 1030,3 20 0,0
16.02.2019 21:00:00 12,0 5,0 9 5 NNW - 10 -
16.02.2019 20:00:00 12,0 6,0 11 6 NNE - 10 -
16.02.2019 19:00:00 12,0 6,1 9 5 NE 1029,2 20 -
16.02.2019 18:00:00 13,0 6,0 13 7 NE - 10 -
16.02.2019 17:00:00 13,0 6,0 16 9 ENE - 10 -
16.02.2019 16:00:00 12,9 6,0 21 11 NE 1028,2 10 0,0
16.02.2019 15:00:00 13,0 6,0 22 12 NE - 10 -
16.02.2019 14:00:00 14,0 5,0 26 14 NE - 10 -
16.02.2019 13:00:00 13,5 5,4 28 15 NE 1028,2 10 -
16.02.2019 12:00:00 13,0 5,0 31 17 NNE - 10 -
16.02.2019 11:00:00 13,0 5,0 29 16 NE - 10 -
16.02.2019 10:00:00 12,9 4,4 31 17 NE 1027,4 10 0,0
16.02.2019 09:00:00 13,0 4,0 37 20 NNE - 10 -
16.02.2019 08:00:00 12,0 5,0 34 18 NE - 10 -
16.02.2019 07:00:00 11,6 5,3 29 16 NE 1025,4 10 -
16.02.2019 06:00:00 12,0 6,0 29 16 NE - 10 -
16.02.2019 05:00:00 12,0 7,0 28 15 NE - 10 -
16.02.2019 04:00:00 11,4 7,7 28 15 NE 1023,8 10 0,0
16.02.2019 03:00:00 12,0 9,0 41 22 ENE - 10 -
16.02.2019 02:00:00 13,0 10,0 35 19 ENE - 10 -
16.02.2019 01:00:00 13,6 9,6 24 13 N 1022,8 10 -
16.02.2019 00:00:00 14,0 9,0 29 16 NNW - 10 -
15.02.2019 23:00:00 14,0 9,0 29 16 NNW - 10 -
15.02.2019 22:00:00 13,8 9,1 28 15 NNW 1023,3 10 0,0
15.02.2019 21:00:00 14,0 9,0 24 13 NW - 10 -
15.02.2019 20:00:00 14,0 9,0 24 13 NNW - 10 -
15.02.2019 19:00:00 14,0 9,0 24 13 NW - 10 -

tt = Température de l'air
td = dewpoint
ff = Vitesse du vent
dd = Direction du vent
ppp = reduced air pressure
vv = visibility
rr = Quantités de précipitations

stations d'obs. à proximité